Buckland, AK

4:56 PM AKDT on October 23, 2017 (GMT -0800)
Buckland

Weather History for PABL - September, 2012

Change the Weather History Date:

Thursday, September 27, 2012

  Actual Average (PASK) Record (PASK)
Temperature  
Mean Temperature 32 °F -  
Max Temperature 37 °F 38 °F 51 °F (2002)
Min Temperature 26 °F 29 °F 21 °F (2004)
Degree Days  
Heating Degree Days 34    
Moisture  
Dew Point 25 °F    
Average Humidity 75    
Maximum Humidity 93    
Minimum Humidity 52    
Precipitation  
Precipitation 0.00 in - - ()
Sea Level Pressure  
Sea Level Pressure 29.29 in    
Wind  
Wind Speed 15 mph (NW)    
Max Wind Speed 26 mph    
Max Gust Speed 32 mph    
Visibility 10 miles    
Events      
Averages and records for this station are not official NWS values.
T = Trace of Precipitation, MM = Missing Value Source: NWS Daily Summary

Daily Weather History Graph

Daily Weather History Graph

Search for Another Location

Airport or City:

Trip Planner

Search our weather history database for the weather conditions in past years. The results will help you decide how hot, cold, wet, or windy it might be!

Date:

Astronomy

Sep. 27, 2012 Rise Set
Actual Time 8:44 AM AKDT 8:23 PM AKDT
Civil Twilight 7:53 AM AKDT 9:14 PM AKDT
Nautical Twilight 6:52 AM AKDT 10:15 PM AKDT
Astronomical Twilight 5:42 AM AKDT 11:24 PM AKDT
Moon 7:25 PM AKDT (9/27) 5:47 AM AKDT (9/27)
Length of Visible Light 13h 20m
Length of Day
11h 38m
Waxing Gibbous, 94% of the Moon is Illuminated
Sep 27
Waxing Gibbous
Sep 29
Full
Oct 7
Last Quarter
Oct 15
New
Oct 21
First Quarter

Hourly Weather History & Observations

Time (AKDT) Temp. Windchill Dew Point Humidity Pressure Visibility Wind Dir Wind Speed Gust Speed Precip Events Conditions
12:16 AM 28.4 °F 19.7 °F 24.8 °F 86% 29.34 in 10.0 mi NNW 9.2 mph - N/A   Clear
12:36 AM 28.4 °F 23.3 °F 24.8 °F 86% 29.34 in 10.0 mi North 4.6 mph - N/A   Clear
12:56 AM 28.4 °F 21.2 °F 24.8 °F 86% 29.33 in 10.0 mi NNW 6.9 mph - N/A   Clear
1:16 AM 28.4 °F 19.1 °F 24.8 °F 86% 29.33 in 10.0 mi NW 10.4 mph - N/A   Clear
1:36 AM 28.4 °F 18.0 °F 24.8 °F 86% 29.32 in 10.0 mi NW 12.7 mph - N/A   Clear
1:56 AM 28.4 °F 17.5 °F 26.6 °F 93% 29.31 in 10.0 mi NW 13.8 mph - N/A   Clear
2:16 AM 28.4 °F 17.5 °F 24.8 °F 86% 29.31 in 10.0 mi NW 13.8 mph 19.6 mph N/A   Clear
2:36 AM 28.4 °F 16.6 °F 24.8 °F 86% 29.30 in 10.0 mi NW 16.1 mph - N/A   Clear
2:56 AM 28.4 °F 16.2 °F 24.8 °F 86% 29.30 in 10.0 mi WNW 17.3 mph - N/A   Clear
3:16 AM 28.4 °F 17.5 °F 26.6 °F 93% 29.30 in 10.0 mi NW 13.8 mph - N/A   Clear
3:36 AM 28.4 °F 19.1 °F 24.8 °F 86% 29.30 in 10.0 mi NW 10.4 mph - N/A   Clear
3:56 AM 28.4 °F 17.5 °F 26.6 °F 93% 29.29 in 10.0 mi NW 13.8 mph 18.4 mph N/A   Clear
4:16 AM 30.2 °F 18.5 °F 26.6 °F 86% 29.28 in 10.0 mi NW 17.3 mph 24.2 mph N/A   Clear
4:36 AM 32.0 °F 19.8 °F 28.4 °F 87% 29.28 in 10.0 mi NW 20.7 mph 26.5 mph N/A   Clear
4:56 AM 30.2 °F 18.9 °F 28.4 °F 93% 29.27 in 10.0 mi NW 16.1 mph - N/A   Clear
5:16 AM 30.2 °F 18.9 °F 28.4 °F 93% 29.27 in 10.0 mi NW 16.1 mph 20.7 mph N/A   Clear
5:36 AM 30.2 °F 17.4 °F 28.4 °F 93% 29.26 in 10.0 mi NW 20.7 mph 26.5 mph N/A   Clear
5:56 AM 30.2 °F 18.1 °F 28.4 °F 93% 29.27 in 10.0 mi NW 18.4 mph - N/A   Clear
6:16 AM 30.2 °F 18.5 °F 28.4 °F 93% 29.27 in 10.0 mi NW 17.3 mph 24.2 mph N/A   Mostly Cloudy
6:36 AM 32.0 °F 20.8 °F 28.4 °F 87% 29.27 in 10.0 mi NW 17.3 mph 25.3 mph N/A   Overcast
6:56 AM 32.0 °F 20.1 °F 26.6 °F 80% 29.26 in 10.0 mi NW 19.6 mph 27.6 mph N/A   Overcast
7:16 AM 30.2 °F 17.1 °F 26.6 °F 86% 29.26 in 10.0 mi NW 21.9 mph 29.9 mph N/A   Overcast
7:36 AM 32.0 °F 19.5 °F 26.6 °F 80% 29.26 in 10.0 mi NW 21.9 mph 28.8 mph N/A   Overcast
7:56 AM 30.2 °F 17.8 °F 24.8 °F 80% 29.26 in 10.0 mi NW 19.6 mph 26.5 mph N/A   Overcast
8:16 AM 30.2 °F 18.1 °F 24.8 °F 80% 29.26 in 10.0 mi NW 18.4 mph 25.3 mph N/A   Overcast
8:36 AM 30.2 °F 17.4 °F 24.8 °F 80% 29.26 in 10.0 mi NW 20.7 mph 26.5 mph N/A   Overcast
8:56 AM 30.2 °F 17.4 °F 24.8 °F 80% 29.25 in 10.0 mi NW 20.7 mph 26.5 mph N/A   Overcast
9:16 AM 30.2 °F 17.8 °F 24.8 °F 80% 29.26 in 10.0 mi NW 19.6 mph 25.3 mph N/A   Overcast
9:36 AM 32.0 °F 20.5 °F 26.6 °F 80% 29.26 in 10.0 mi NW 18.4 mph 25.3 mph N/A   Overcast
9:56 AM 32.0 °F 20.5 °F 26.6 °F 80% 29.26 in 10.0 mi NW 18.4 mph 27.6 mph N/A   Mostly Cloudy
10:16 AM 32.0 °F 19.5 °F 26.6 °F 80% 29.26 in 10.0 mi NW 21.9 mph 27.6 mph N/A   Mostly Cloudy
10:36 AM 32.0 °F 19.5 °F 24.8 °F 75% 29.27 in 10.0 mi NW 21.9 mph 27.6 mph N/A   Scattered Clouds
10:56 AM 33.8 °F 22.2 °F 26.6 °F 75% 29.27 in 10.0 mi NW 20.7 mph 31.1 mph N/A   Scattered Clouds
11:16 AM 33.8 °F 22.5 °F 26.6 °F 75% 29.27 in 10.0 mi NW 19.6 mph 28.8 mph N/A   Partly Cloudy
11:36 AM 33.8 °F 22.5 °F 26.6 °F 75% 29.27 in 10.0 mi NW 19.6 mph 29.9 mph N/A   Partly Cloudy
11:56 AM 35.6 °F 24.5 °F 24.8 °F 65% 29.28 in 10.0 mi NW 20.7 mph 29.9 mph N/A   Scattered Clouds
12:16 PM 35.6 °F 23.4 °F 24.8 °F 65% 29.28 in 10.0 mi NW 25.3 mph 31.1 mph N/A   Mostly Cloudy
12:36 PM 33.8 °F 21.6 °F 24.8 °F 70% 29.28 in 10.0 mi NNW 23.0 mph 32.2 mph N/A   Mostly Cloudy
12:56 PM 35.6 °F 24.5 °F 24.8 °F 65% 29.28 in 10.0 mi NNW 20.7 mph 31.1 mph N/A   Clear
1:16 PM 35.6 °F 24.5 °F 24.8 °F 65% 29.28 in 10.0 mi NNW 20.7 mph 31.1 mph N/A   Clear
1:36 PM 35.6 °F 24.8 °F 23.0 °F 60% 29.28 in 10.0 mi NNW 19.6 mph 32.2 mph N/A   Clear
1:56 PM 35.6 °F 24.5 °F 23.0 °F 60% 29.28 in 10.0 mi NNW 20.7 mph 32.2 mph N/A   Clear
2:16 PM 35.6 °F 23.2 °F 24.8 °F 65% 29.28 in 10.0 mi NNW 26.5 mph 31.1 mph N/A   Clear
2:36 PM 35.6 °F 23.7 °F 24.8 °F 65% 29.29 in 10.0 mi NNW 24.2 mph 31.1 mph N/A   Clear
2:56 PM 35.6 °F 23.7 °F 23.0 °F 60% 29.29 in 10.0 mi NW 24.2 mph 31.1 mph N/A   Clear
3:16 PM 35.6 °F 23.2 °F 23.0 °F 60% 29.29 in 10.0 mi NNW 26.5 mph 32.2 mph N/A   Clear
3:36 PM 37.4 °F 25.6 °F 23.0 °F 56% 29.30 in 10.0 mi NNW 26.5 mph 32.2 mph N/A   Clear
3:56 PM 37.4 °F 26.9 °F 23.0 °F 56% 29.30 in 10.0 mi NNW 20.7 mph 29.9 mph N/A   Clear
4:16 PM 37.4 °F 26.6 °F 21.2 °F 52% 29.30 in 10.0 mi NNW 21.9 mph 31.1 mph N/A   Clear
4:36 PM 37.4 °F 26.9 °F 23.0 °F 56% 29.30 in 10.0 mi NNW 20.7 mph 27.6 mph N/A   Clear
4:56 PM 37.4 °F 26.9 °F 23.0 °F 56% 29.30 in 10.0 mi NNW 20.7 mph 27.6 mph N/A   Clear
5:16 PM 37.4 °F 26.6 °F 21.2 °F 52% 29.30 in 10.0 mi NNW 21.9 mph 27.6 mph N/A   Clear
5:36 PM 37.4 °F 26.9 °F 21.2 °F 52% 29.31 in 10.0 mi NW 20.7 mph 29.9 mph N/A   Clear
5:56 PM 37.4 °F 26.4 °F 21.2 °F 52% 29.30 in 10.0 mi NNW 23.0 mph 28.8 mph N/A   Clear
6:16 PM 37.4 °F 27.2 °F 23.0 °F 56% 29.31 in 10.0 mi NW 19.6 mph 28.8 mph N/A   Clear
6:36 PM 35.6 °F 25.5 °F 21.2 °F 56% 29.30 in 10.0 mi NW 17.3 mph 29.9 mph N/A   Clear
6:56 PM 35.6 °F 26.2 °F 23.0 °F 60% 29.30 in 10.0 mi NW 15.0 mph - N/A   Clear
7:16 PM 35.6 °F 25.9 °F 23.0 °F 60% 29.30 in 10.0 mi NW 16.1 mph - N/A   Clear
7:36 PM 33.8 °F 23.5 °F 23.0 °F 65% 29.31 in 10.0 mi NW 16.1 mph - N/A   Clear
7:56 PM 33.8 °F 24.3 °F 23.0 °F 65% 29.31 in 10.0 mi NW 13.8 mph 21.9 mph N/A   Clear
8:16 PM 33.8 °F 23.9 °F 23.0 °F 65% 29.31 in 10.0 mi NW 15.0 mph - N/A   Clear
8:36 PM 33.8 °F 24.3 °F 23.0 °F 65% 29.32 in 10.0 mi NW 13.8 mph - N/A   Clear
8:56 PM 32.0 °F 22.5 °F 24.8 °F 75% 29.32 in 10.0 mi NW 12.7 mph - N/A   Clear
9:16 PM 32.0 °F 23.6 °F 24.8 °F 75% 29.32 in 10.0 mi NW 10.4 mph - N/A   Clear
9:36 PM 30.2 °F 21.9 °F 23.0 °F 75% 29.32 in 10.0 mi NW 9.2 mph - N/A   Clear
9:56 PM 30.2 °F 21.9 °F 23.0 °F 75% 29.33 in 10.0 mi WNW 9.2 mph - N/A   Clear
10:16 PM 30.2 °F 21.9 °F 23.0 °F 75% 29.33 in 10.0 mi NW 9.2 mph - N/A   Clear
10:36 PM 30.2 °F 20.8 °F 24.8 °F 80% 29.33 in 10.0 mi NW 11.5 mph 16.1 mph N/A   Clear
10:56 PM 30.2 °F 23.4 °F 24.8 °F 80% 29.33 in 10.0 mi WNW 6.9 mph - N/A   Clear
11:16 PM 30.2 °F 22.6 °F 24.8 °F 80% 29.33 in 10.0 mi WNW 8.1 mph - N/A   Clear
11:36 PM 26.6 °F 19.1 °F 23.0 °F 86% 29.33 in 10.0 mi WNW 6.9 mph - N/A   Clear
11:56 PM 28.4 °F 21.2 °F 24.8 °F 86% 29.33 in 10.0 mi WNW 6.9 mph - N/A   Clear